SCP
0 0 0 0 0 0 0 0 0 0 0 0 0 0 0 0 0 0 0 0 0 0 0 0 0 0 0 0 0 0 0 0 -0 0 0 0 0 0 0 0 0 0 0 0
0 0 0 0 0 0 0 0 0 0 0 0 0 0 0 0 0 0 0 0 0 0 0 0 0 0 0 0 0 0 0 -0 0 0 0 0 0 0 0 0 0 0 0 0
0 0 0 0 0 0 0 0 0 0 0 0 0 0 0 0 0 0 0 0 0 0 0 0 0 0 0 0 0 0 -0 -0 -0 0 0 0 0 0 0 0 0 0 0 0
0 0 0 0 0 0 0 0 0 0 0 0 0 0 0 0 0 0 0 0 0 0 0 0 0 0 0 0 0 -0 -0 -0 0 0 0 0 0 0 0 0 0 0 0 0
0 0 0 0 0 0 0 0 0 0 0 0 0 0 0 0 0 0 0 0 0 0 0 0 0 0 -0 -0 -0 -0 -0 0 0 0 0 0 0 0 0 0 0 0 0 0
0 0 0 0 0 0 0 0 0 0 0 0 0 0 0 0 0 0 0 0 0 0 0 0 0 0 0 -0 -0 -0 0 0 0 0 0 0 0 0 0 0 0 0 0 0
0 0 0 0 0 0 0 0 0 0 0 0 0 0 0 0 0 0 0 0 0 0 -0 0 0 0 -0 -0 -0 -0 0 0 0 0 0 0 0 0 0 0 0 0 0 0
0 0 0 0 0 0 0 0 0 0 0 0 0 0 0 0 0 0 0 0 0 -0 -0 0 0 -0 -0 -0 -0 -0 0 0 0 0 0 0 0 0 0 0 0 0 0 0
0 0 0 0 0 0 0 0 0 0 0 0 0 0 0 0 0 0 0 0 -0 -0 0 -0 -0 -0 0 0 -0 -0 0 0 0 0 0 0 0 0 0 0 0 0 0 0
0 0 0 0 0 0 0 0 0 0 0 0 0 0 0 0 0 0 0 0 -0 -0 0 0 -0 -0 -0 0 -0 -0 0 0 0 0 0 0 0 0 0 0 0 0 0 0
0 0 0 0 0 0 0 0 0 0 0 0 0 0 0 0 0 0 0 -0 -0 0 0 0 0 -0 -0 -0 -0 -0 0 0 0 0 0 0 0 0 0 0 0 0 0 0
0 0 0 0 0 0 0 0 0 0 0 0 0 0 0 0 0 0 0 0 -0 -0 0 0 -0 0 -0 -0 0 -0 0 0 0 0 0 0 0 0 0 0 -0 0 -0 0
0 0 0 0 0 0 0 0 0 0 0 0 0 0 0 0 0 0 -0 0 0 0 0 -0 0 -0 -0 0 0 0 -0 0 0 0 0 0 0 0 0 0 0 0 -0 0
0 0 0 0 0 0 0 0 0 0 0 0 0 0 0 0 0 0 -0 -0 0 0 0 -0 -0 0 0 0 0 0 -0 -0 0 0 0 0 0 0 0 0 -0 0 0 -0
0 0 0 -0 -0 0 0 0 0 -0 -0 0 0 0 0 0 -0 0 0 0 0 0 0 -0 -0 -0 -0 -0 -0 0 -0 -0 0 0 0 0 0 0 -0 -0 0 -0 0 0
0 -0 -0 -0 -0 -0 -0 -0 -0 -0 0 0 0 0 0 0 -0 -0 0 0 -0 -0 -0 -0 -0 -0 -0 -0 -0 -0 -0 -0 0 0 0 0 0 0 0 -0 -0 0 -0 -0
-0 0 -0 0 0 -0 -0 -0 -0 -0 -0 0 0 0 0 -0 -0 0 -0 0 0 0 0 0 -0 -0 -0 -0 -0 -0 -0 -0 -0 0 0 0 0 0 0 0 -0 -0 -0 -0
0 -0 -0 -0 0 -0 -0 -0 -0 -0 0 -0 -0 -0 -0 -0 -0 -0 -0 0 0 0 0 0 0 0 0 -0 0 -0 -0 0 -0 -0 0 0 0 0 0 0 -0 -0 -0 -0
-0 -0 -0 -0 -0 -0 -0 -0 -0 -0 0 -0 -0 -0 -0 -0 -0 -0 -0 -0 -0 -0 -0 -0 0 0 -0 0 -0 -0 -0 0 0 0 0 0 0 0 0 0 -0 -0 -0 -0
-0 -0 -0 -0 -0 -0 -0 0 -0 -0 0 -0 -0 -0 0 0 0 0 -0 -0 0 -0 -0 -0 -0 -0 -0 -0 0 -0 -0 0 0 0 0 0 0 0 0 -0 0 -0 -0 0
-0 -0 -0 0 0 0 0 -0 -0 -0 -0 -0 0 0 0 -0 -0 -0 -0 -0 -0 -0 -0 -0 -0 -0 -0 -0 -0 -0 -0 -0 0 0 0 0 0 0 0 0 0 0 0 0
0 0 0 0 0 0 0 -0 -0 -0 -0 -0 0 0 0 0 -0 0 -0 -0 -0 -0 -0 -0 -0 -0 -0 -0 -0 -0 -0 -0 -0 -0 0 0 0 0 0 0 0 0 0 0
0 0 0 0 0 -0 -0 0 0 0 0 0 0 0 0 0 -0 -0 -0 -0 -0 -0 -0 -0 -0 -0 -0 -0 -0 -0 -0 -0 -0 -0 0 0 0 0 0 0 0 0 0 0
0 0 0 0 -0 -0 -0 0 0 0 0 0 0 0 -0 -0 0 -0 -0 -0 -0 -0 -0 -0 -0 -0 -0 -0 -0 -0 -0 -0 -0 -0 -0 0 0 0 0 0 0 0 0 0
0 0 0 0 0 0 0 0 0 0 0 -0 0 0 0 0 0 0 -0 -0 0 -0 -0 0 0 -0 -0 -0 -0 -0 -0 -0 -0 -0 -0 -0 -0 0 0 0 0 0 0 0
0 -0 -0 -0 -0 -0 -0 0 0 0 0 0 0 0 0 0 0 0 0 0 0 0 0 0 0 0 0 0 0 0 -0 -0 -0 -0 -0 -0 -0 -0 -0 0 0 0 0 0
0 0 0 0 -0 -0 -0 -0 -0 -0 0 0 0 0 0 0 0 0 0 0 0 0 0 0 0 0 0 -0 0 0 0 0 0 -0 -0 -0 -0 -0 -0 -0 0 0 0 0
Wind_Speed_500mb
6 10 4 4 12 16 23 23 19 21 23 23 27 27 28 16 7 9 10 20 30 36 41 39 41 38 40 39 36 39 45 46 47 54 53 54 56 57 58 57 62 66 70 67
5 9 12 17 20 24 25 28 25 29 31 19 6 21 21 9 5 6 14 27 34 38 37 39 37 42 42 39 35 40 44 50 55 57 51 50 53 58 61 62 64 69 74 74
18 3 8 20 31 33 26 22 27 28 30 17 15 19 12 5 1 8 22 31 35 37 38 38 41 42 42 36 37 40 46 53 48 49 53 54 62 67 67 69 72 79 80 77
3 4 17 5 7 16 22 12 13 5 8 13 14 14 7 7 3 15 27 32 34 35 37 37 41 40 38 32 37 42 46 45 50 52 57 66 69 67 70 72 71 69 71 69
7 9 16 14 7 6 8 7 11 17 18 17 13 10 12 7 13 21 23 28 31 33 37 40 39 39 35 32 37 41 43 49 61 61 64 64 66 63 68 67 65 62 61 64
6 6 8 6 2 5 4 10 17 14 12 10 5 5 6 5 16 19 22 26 31 35 38 37 36 36 33 35 38 43 48 52 60 58 62 62 64 63 68 63 61 59 60 61
13 7 9 7 3 6 8 5 20 15 13 8 3 7 3 10 14 17 21 28 31 34 37 38 38 37 37 39 42 46 47 50 59 58 61 61 62 61 62 59 53 58 55 49
9 10 16 1 7 8 10 23 21 19 14 13 11 6 8 10 15 21 25 30 35 39 39 37 36 37 38 40 44 47 47 53 59 53 64 56 62 64 62 50 45 40 45 55
12 5 4 4 6 15 13 23 14 17 14 12 8 8 9 13 17 20 25 31 37 42 41 39 38 37 41 42 44 46 46 50 53 53 57 57 59 65 55 41 35 39 53 47
8 10 12 20 23 24 20 18 19 17 14 13 11 9 11 14 17 22 26 32 35 37 44 46 42 39 41 43 42 43 44 48 45 56 54 57 59 60 47 36 40 48 56 55
4 10 15 16 16 10 12 20 22 17 15 15 13 13 13 14 19 23 29 34 36 38 40 45 47 46 45 44 40 38 37 42 44 47 50 53 63 46 34 33 43 55 59 57
5 15 8 13 26 24 30 26 20 15 15 14 15 16 14 15 22 24 32 34 36 37 38 42 46 50 49 46 38 37 37 41 45 43 46 49 56 46 30 39 39 49 47 43
2 13 11 24 28 30 31 26 20 17 16 17 17 21 25 24 25 27 33 33 36 37 36 39 43 48 53 50 41 38 38 38 41 39 42 41 43 46 47 42 46 56 60 39
16 30 22 25 24 29 28 25 20 21 18 14 13 18 24 28 31 35 39 36 35 34 37 40 43 47 51 50 45 39 37 35 37 38 38 38 34 33 35 40 46 54 63 68
26 11 24 34 37 31 25 25 25 23 19 15 11 14 21 28 34 38 39 37 35 35 38 40 44 47 50 51 48 46 42 40 37 38 37 33 34 30 32 32 38 42 52 62
23 29 38 40 34 29 27 24 23 20 13 7 6 9 17 23 30 35 38 36 38 43 44 42 43 45 47 49 49 45 47 42 38 37 37 39 37 39 38 38 37 39 44 55
39 31 36 34 31 29 26 24 22 17 12 7 1 5 10 19 28 36 37 34 34 39 44 45 45 43 42 46 45 45 44 46 48 42 41 39 41 44 38 37 38 37 37 39
17 28 29 34 36 35 30 26 21 18 15 11 5 2 9 20 31 36 33 31 35 37 46 45 44 43 43 44 42 43 45 44 43 49 50 44 44 44 45 40 38 39 34 31
25 42 36 35 35 35 34 31 27 21 17 12 9 8 11 18 27 32 28 33 40 46 48 47 44 45 44 45 45 44 44 45 46 44 45 51 50 48 47 47 44 38 37 33
43 41 40 41 38 37 36 29 23 20 17 14 14 12 13 19 27 31 28 30 38 44 43 44 45 44 46 46 47 46 47 45 47 47 50 46 49 51 54 48 47 47 42 36
46 44 43 39 36 32 27 22 17 16 15 14 15 15 15 20 27 29 28 26 33 42 42 43 47 47 44 46 45 47 47 49 48 49 50 51 48 47 48 51 53 53 51 45
45 44 41 38 36 32 25 19 12 13 13 15 16 16 16 22 24 22 28 27 26 34 35 41 46 48 46 42 42 45 46 48 49 50 51 51 51 50 49 49 49 50 52 51
46 43 41 38 35 32 27 20 14 11 14 15 14 15 20 24 26 23 23 32 26 29 33 40 44 45 46 40 42 42 45 48 51 52 53 52 51 52 51 52 50 49 50 49
46 41 38 34 31 29 28 22 15 14 15 15 14 17 20 16 20 24 26 31 33 30 34 39 42 45 47 43 41 40 41 44 48 50 50 51 51 52 53 54 53 53 52 50
38 36 32 30 29 27 25 21 16 17 15 15 13 16 21 23 20 19 23 28 34 35 32 38 43 45 42 43 42 41 39 43 47 48 50 50 52 53 54 57 57 57 54 52
35 34 30 25 19 23 21 17 15 15 13 12 12 16 20 21 20 17 21 26 31 36 35 37 42 45 45 45 44 43 43 44 47 45 45 47 50 52 54 57 59 59 58 56
32 31 31 28 24 21 19 14 12 13 12 11 12 16 18 19 19 16 18 19 24 29 32 34 36 43 45 43 43 43 43 46 49 50 48 50 51 53 55 56 58 60 61 59
Wind_Direction_500mb
147 117 130 215 191 192 220 242 238 265 238 250 212 204 195 191 222 270 286 322 330 331 329 328 323 322 319 320 323 325 323 321 317 318 316 315 310 305 301 298 297 299 297 293
163 204 225 252 252 249 247 249 251 256 259 248 215 178 175 197 283 303 321 329 329 327 324 323 321 318 319 324 325 323 321 320 324 326 313 309 309 309 308 303 301 302 302 298
252 348 276 259 243 248 241 233 238 246 260 165 165 170 173 175 320 327 331 329 325 323 320 318 318 317 318 319 321 320 323 332 319 313 313 314 319 320 316 313 312 309 302 299
214 119 247 6 329 263 258 243 212 158 135 152 144 128 128 115 66 338 332 327 322 319 316 318 319 318 317 313 316 319 325 319 321 319 318 321 323 326 323 318 312 313 302 300
194 212 309 267 202 172 215 187 172 152 138 128 124 139 130 104 358 336 327 320 318 320 323 322 324 321 317 313 313 318 316 321 326 328 323 322 325 327 324 320 318 316 312 305
148 226 245 28 203 210 223 254 157 148 138 137 142 233 106 329 340 337 333 331 332 332 332 331 324 320 315 312 315 315 317 325 320 328 327 326 328 327 323 322 319 315 313 310
195 237 269 268 204 184 225 61 144 133 121 120 61 60 59 345 348 347 346 347 343 341 342 337 329 321 313 312 317 319 323 316 326 329 330 332 332 332 327 326 320 316 316 316
191 209 249 119 169 232 97 124 128 116 116 106 98 72 22 5 355 354 356 359 359 355 352 346 338 330 323 319 316 320 318 325 332 333 335 333 338 338 338 332 323 332 331 339
199 201 68 38 82 106 129 132 124 121 120 112 90 42 18 5 359 358 355 357 4 3 357 355 352 347 336 328 320 318 319 332 336 339 344 344 342 344 339 336 331 331 341 349
165 175 132 121 115 102 93 109 122 125 119 94 75 44 31 17 1 359 359 357 357 360 4 5 360 356 349 341 330 326 332 337 338 340 350 351 355 348 340 338 339 339 344 340
173 128 146 181 173 178 159 147 130 119 105 82 66 44 24 6 5 8 3 2 5 2 359 4 6 3 358 352 342 337 342 343 342 348 1 357 1 1 357 1 343 337 338 334
130 198 193 181 170 168 156 149 138 119 113 75 65 48 32 24 13 7 1 360 3 1 357 1 6 7 5 0 353 345 346 348 351 353 6 1 5 17 18 3 20 14 357 343
56 135 129 134 152 155 151 146 130 120 122 112 78 52 42 37 24 14 8 4 2 358 355 0 5 7 8 6 -0 353 352 354 353 358 7 4 4 11 8 22 25 17 17 7
178 136 107 141 147 150 148 141 131 125 120 115 82 51 41 37 27 18 11 5 1 359 1 4 5 6 8 8 9 1 0 5 358 358 2 8 359 358 3 357 2 5 14 18
156 173 151 142 137 137 142 139 136 133 124 105 83 45 32 28 24 17 10 6 7 6 8 9 9 7 9 11 14 12 6 7 6 2 2 5 3 2 1 2 7 359 360 20
129 128 134 138 138 139 139 137 140 148 146 122 78 31 25 22 18 15 12 11 13 15 14 14 12 8 8 10 15 15 18 14 18 13 11 8 9 10 9 5 4 5 10 12
128 130 141 138 141 141 140 137 135 135 139 158 190 358 8 14 16 15 14 18 20 16 20 19 15 11 11 13 15 16 16 16 22 23 23 18 15 20 15 11 7 5 5 11
170 164 154 151 144 139 136 137 133 126 117 101 82 43 18 18 21 14 15 20 24 21 23 22 20 20 19 17 17 18 19 17 18 21 27 26 22 21 22 23 17 12 6 360
156 149 141 138 137 136 134 128 124 116 97 78 61 66 49 32 20 16 17 23 23 22 20 20 21 22 24 25 24 22 21 20 21 20 21 25 30 26 24 22 22 19 17 8
140 136 136 135 136 134 130 126 123 108 86 61 55 75 59 34 20 17 24 28 26 20 18 19 21 22 23 24 27 25 23 22 21 20 19 19 18 20 23 23 22 20 19 17
139 137 139 138 137 135 130 131 119 92 69 59 69 81 58 33 20 22 25 24 16 19 19 21 23 23 22 25 26 26 24 23 21 21 20 19 14 13 12 13 18 18 17 13
142 145 149 150 150 142 145 147 121 84 61 62 78 73 50 33 28 28 28 25 10 10 17 18 20 20 22 24 23 25 25 24 22 21 20 20 18 13 10 7 10 9 12 14
146 147 144 141 140 141 148 145 119 82 66 76 85 62 39 31 33 37 30 24 21 18 20 20 17 17 22 23 21 20 22 22 23 21 20 18 16 17 15 10 6 5 7 4
145 147 144 140 137 138 140 134 116 85 74 86 81 53 39 36 30 36 33 27 25 24 25 23 22 22 26 21 18 18 17 16 18 18 17 17 13 12 13 13 11 6 2 1
154 154 149 144 141 141 138 129 111 85 79 87 71 44 32 31 36 31 30 26 25 28 25 22 23 23 22 19 17 15 13 12 14 13 13 11 11 11 9 9 8 6 4 360
143 151 154 151 143 143 139 128 111 94 84 83 62 41 31 30 28 31 25 24 24 25 23 20 22 21 19 17 17 13 12 10 10 8 9 7 5 4 6 6 4 3 0 358
143 147 150 148 145 145 142 128 106 99 91 88 60 40 34 30 26 27 25 21 20 20 19 18 17 19 19 19 15 15 11 9 8 8 4 2 4 3 0 -0 0 359 359 357
Wind_Speed_850mb
6 10 4 4 12 16 23 23 19 21 23 23 27 27 28 16 7 9 10 20 30 36 41 39 41 38 40 39 36 39 45 46 47 54 53 54 56 57 58 57 62 66 70 67
5 9 12 17 20 24 25 28 25 29 31 19 6 21 21 9 5 6 14 27 34 38 37 39 37 42 42 39 35 40 44 50 55 57 51 50 53 58 61 62 64 69 74 74
18 3 8 20 31 33 26 22 27 28 30 17 15 19 12 5 1 8 22 31 35 37 38 38 41 42 42 36 37 40 46 53 48 49 53 54 62 67 67 69 72 79 80 77
3 4 17 5 7 16 22 12 13 5 8 13 14 14 7 7 3 15 27 32 34 35 37 37 41 40 38 32 37 42 46 45 50 52 57 66 69 67 70 72 71 69 71 69
7 9 16 14 7 6 8 7 11 17 18 17 13 10 12 7 13 21 23 28 31 33 37 40 39 39 35 32 37 41 43 49 61 61 64 64 66 63 68 67 65 62 61 64
6 6 8 6 2 5 4 10 17 14 12 10 5 5 6 5 16 19 22 26 31 35 38 37 36 36 33 35 38 43 48 52 60 58 62 62 64 63 68 63 61 59 60 61
13 7 9 7 3 6 8 5 20 15 13 8 3 7 3 10 14 17 21 28 31 34 37 38 38 37 37 39 42 46 47 50 59 58 61 61 62 61 62 59 53 58 55 49
9 10 16 1 7 8 10 23 21 19 14 13 11 6 8 10 15 21 25 30 35 39 39 37 36 37 38 40 44 47 47 53 59 53 64 56 62 64 62 50 45 40 45 55
12 5 4 4 6 15 13 23 14 17 14 12 8 8 9 13 17 20 25 31 37 42 41 39 38 37 41 42 44 46 46 50 53 53 57 57 59 65 55 41 35 39 53 47
8 10 12 20 23 24 20 18 19 17 14 13 11 9 11 14 17 22 26 32 35 37 44 46 42 39 41 43 42 43 44 48 45 56 54 57 59 60 47 36 40 48 56 55
4 10 15 16 16 10 12 20 22 17 15 15 13 13 13 14 19 23 29 34 36 38 40 45 47 46 45 44 40 38 37 42 44 47 50 53 63 46 34 33 43 55 59 57
5 15 8 13 26 24 30 26 20 15 15 14 15 16 14 15 22 24 32 34 36 37 38 42 46 50 49 46 38 37 37 41 45 43 46 49 56 46 30 39 39 49 47 43
2 13 11 24 28 30 31 26 20 17 16 17 17 21 25 24 25 27 33 33 36 37 36 39 43 48 53 50 41 38 38 38 41 39 42 41 43 46 47 42 46 56 60 39
16 30 22 25 24 29 28 25 20 21 18 14 13 18 24 28 31 35 39 36 35 34 37 40 43 47 51 50 45 39 37 35 37 38 38 38 34 33 35 40 46 54 63 68
26 11 24 34 37 31 25 25 25 23 19 15 11 14 21 28 34 38 39 37 35 35 38 40 44 47 50 51 48 46 42 40 37 38 37 33 34 30 32 32 38 42 52 62
23 29 38 40 34 29 27 24 23 20 13 7 6 9 17 23 30 35 38 36 38 43 44 42 43 45 47 49 49 45 47 42 38 37 37 39 37 39 38 38 37 39 44 55
39 31 36 34 31 29 26 24 22 17 12 7 1 5 10 19 28 36 37 34 34 39 44 45 45 43 42 46 45 45 44 46 48 42 41 39 41 44 38 37 38 37 37 39
17 28 29 34 36 35 30 26 21 18 15 11 5 2 9 20 31 36 33 31 35 37 46 45 44 43 43 44 42 43 45 44 43 49 50 44 44 44 45 40 38 39 34 31
25 42 36 35 35 35 34 31 27 21 17 12 9 8 11 18 27 32 28 33 40 46 48 47 44 45 44 45 45 44 44 45 46 44 45 51 50 48 47 47 44 38 37 33
43 41 40 41 38 37 36 29 23 20 17 14 14 12 13 19 27 31 28 30 38 44 43 44 45 44 46 46 47 46 47 45 47 47 50 46 49 51 54 48 47 47 42 36
46 44 43 39 36 32 27 22 17 16 15 14 15 15 15 20 27 29 28 26 33 42 42 43 47 47 44 46 45 47 47 49 48 49 50 51 48 47 48 51 53 53 51 45
45 44 41 38 36 32 25 19 12 13 13 15 16 16 16 22 24 22 28 27 26 34 35 41 46 48 46 42 42 45 46 48 49 50 51 51 51 50 49 49 49 50 52 51
46 43 41 38 35 32 27 20 14 11 14 15 14 15 20 24 26 23 23 32 26 29 33 40 44 45 46 40 42 42 45 48 51 52 53 52 51 52 51 52 50 49 50 49
46 41 38 34 31 29 28 22 15 14 15 15 14 17 20 16 20 24 26 31 33 30 34 39 42 45 47 43 41 40 41 44 48 50 50 51 51 52 53 54 53 53 52 50
38 36 32 30 29 27 25 21 16 17 15 15 13 16 21 23 20 19 23 28 34 35 32 38 43 45 42 43 42 41 39 43 47 48 50 50 52 53 54 57 57 57 54 52
35 34 30 25 19 23 21 17 15 15 13 12 12 16 20 21 20 17 21 26 31 36 35 37 42 45 45 45 44 43 43 44 47 45 45 47 50 52 54 57 59 59 58 56
32 31 31 28 24 21 19 14 12 13 12 11 12 16 18 19 19 16 18 19 24 29 32 34 36 43 45 43 43 43 43 46 49 50 48 50 51 53 55 56 58 60 61 59
Wind_Direction_850mb
147 117 130 215 191 192 220 242 238 265 238 250 212 204 195 191 222 270 286 322 330 331 329 328 323 322 319 320 323 325 323 321 317 318 316 315 310 305 301 298 297 299 297 293
163 204 225 252 252 249 247 249 251 256 259 248 215 178 175 197 283 303 321 329 329 327 324 323 321 318 319 324 325 323 321 320 324 326 313 309 309 309 308 303 301 302 302 298
252 348 276 259 243 248 241 233 238 246 260 165 165 170 173 175 320 327 331 329 325 323 320 318 318 317 318 319 321 320 323 332 319 313 313 314 319 320 316 313 312 309 302 299
214 119 247 6 329 263 258 243 212 158 135 152 144 128 128 115 66 338 332 327 322 319 316 318 319 318 317 313 316 319 325 319 321 319 318 321 323 326 323 318 312 313 302 300
194 212 309 267 202 172 215 187 172 152 138 128 124 139 130 104 358 336 327 320 318 320 323 322 324 321 317 313 313 318 316 321 326 328 323 322 325 327 324 320 318 316 312 305
148 226 245 28 203 210 223 254 157 148 138 137 142 233 106 329 340 337 333 331 332 332 332 331 324 320 315 312 315 315 317 325 320 328 327 326 328 327 323 322 319 315 313 310
195 237 269 268 204 184 225 61 144 133 121 120 61 60 59 345 348 347 346 347 343 341 342 337 329 321 313 312 317 319 323 316 326 329 330 332 332 332 327 326 320 316 316 316
191 209 249 119 169 232 97 124 128 116 116 106 98 72 22 5 355 354 356 359 359 355 352 346 338 330 323 319 316 320 318 325 332 333 335 333 338 338 338 332 323 332 331 339
199 201 68 38 82 106 129 132 124 121 120 112 90 42 18 5 359 358 355 357 4 3 357 355 352 347 336 328 320 318 319 332 336 339 344 344 342 344 339 336 331 331 341 349
165 175 132 121 115 102 93 109 122 125 119 94 75 44 31 17 1 359 359 357 357 360 4 5 360 356 349 341 330 326 332 337 338 340 350 351 355 348 340 338 339 339 344 340
173 128 146 181 173 178 159 147 130 119 105 82 66 44 24 6 5 8 3 2 5 2 359 4 6 3 358 352 342 337 342 343 342 348 1 357 1 1 357 1 343 337 338 334
130 198 193 181 170 168 156 149 138 119 113 75 65 48 32 24 13 7 1 360 3 1 357 1 6 7 5 0 353 345 346 348 351 353 6 1 5 17 18 3 20 14 357 343
56 135 129 134 152 155 151 146 130 120 122 112 78 52 42 37 24 14 8 4 2 358 355 0 5 7 8 6 -0 353 352 354 353 358 7 4 4 11 8 22 25 17 17 7
178 136 107 141 147 150 148 141 131 125 120 115 82 51 41 37 27 18 11 5 1 359 1 4 5 6 8 8 9 1 0 5 358 358 2 8 359 358 3 357 2 5 14 18
156 173 151 142 137 137 142 139 136 133 124 105 83 45 32 28 24 17 10 6 7 6 8 9 9 7 9 11 14 12 6 7 6 2 2 5 3 2 1 2 7 359 360 20
129 128 134 138 138 139 139 137 140 148 146 122 78 31 25 22 18 15 12 11 13 15 14 14 12 8 8 10 15 15 18 14 18 13 11 8 9 10 9 5 4 5 10 12
128 130 141 138 141 141 140 137 135 135 139 158 190 358 8 14 16 15 14 18 20 16 20 19 15 11 11 13 15 16 16 16 22 23 23 18 15 20 15 11 7 5 5 11
170 164 154 151 144 139 136 137 133 126 117 101 82 43 18 18 21 14 15 20 24 21 23 22 20 20 19 17 17 18 19 17 18 21 27 26 22 21 22 23 17 12 6 360
156 149 141 138 137 136 134 128 124 116 97 78 61 66 49 32 20 16 17 23 23 22 20 20 21 22 24 25 24 22 21 20 21 20 21 25 30 26 24 22 22 19 17 8
140 136 136 135 136 134 130 126 123 108 86 61 55 75 59 34 20 17 24 28 26 20 18 19 21 22 23 24 27 25 23 22 21 20 19 19 18 20 23 23 22 20 19 17
139 137 139 138 137 135 130 131 119 92 69 59 69 81 58 33 20 22 25 24 16 19 19 21 23 23 22 25 26 26 24 23 21 21 20 19 14 13 12 13 18 18 17 13
142 145 149 150 150 142 145 147 121 84 61 62 78 73 50 33 28 28 28 25 10 10 17 18 20 20 22 24 23 25 25 24 22 21 20 20 18 13 10 7 10 9 12 14
146 147 144 141 140 141 148 145 119 82 66 76 85 62 39 31 33 37 30 24 21 18 20 20 17 17 22 23 21 20 22 22 23 21 20 18 16 17 15 10 6 5 7 4
145 147 144 140 137 138 140 134 116 85 74 86 81 53 39 36 30 36 33 27 25 24 25 23 22 22 26 21 18 18 17 16 18 18 17 17 13 12 13 13 11 6 2 1
154 154 149 144 141 141 138 129 111 85 79 87 71 44 32 31 36 31 30 26 25 28 25 22 23 23 22 19 17 15 13 12 14 13 13 11 11 11 9 9 8 6 4 360
143 151 154 151 143 143 139 128 111 94 84 83 62 41 31 30 28 31 25 24 24 25 23 20 22 21 19 17 17 13 12 10 10 8 9 7 5 4 6 6 4 3 0 358
143 147 150 148 145 145 142 128 106 99 91 88 60 40 34 30 26 27 25 21 20 20 19 18 17 19 19 19 15 15 11 9 8 8 4 2 4 3 0 -0 0 359 359 357